Time,TemperatureF,DewpointF,PressureIn,WindDirection,WindDirectionDegrees,WindSpeedMPH,WindSpeedGustMPH,Humidity,HourlyPrecipIn,Conditions,Clouds,dailyrainin,SolarRadiationWatts/m^2,SoftwareType,DateUTC
2013-04-14 00:02:00,43.0,37.0,-100.00,East,81,1.0,4.0,80,0.00,,,0.00,0.000000,,2013-04-14 07:02:00,
2013-04-14 00:12:00,43.0,37.0,-100.00,East,81,1.0,4.0,80,0.00,,,0.00,0.000000,,2013-04-14 07:12:00,
2013-04-14 00:21:00,43.0,37.0,-100.00,East,81,1.0,4.0,80,0.00,,,0.00,0.000000,,2013-04-14 07:21:00,
2013-04-14 00:42:00,43.0,37.0,-100.00,NNW,345,1.0,4.0,78,0.00,,,0.00,0.000000,,2013-04-14 07:42:00,
2013-04-14 00:52:00,43.0,37.0,-100.00,NNW,345,1.0,4.0,78,0.00,,,0.00,0.000000,,2013-04-14 07:52:00,
2013-04-14 01:02:00,43.0,37.0,-100.00,NNW,345,1.0,4.0,78,0.00,,,0.00,0.000000,,2013-04-14 08:02:00,
2013-04-14 01:12:00,43.0,37.0,-100.00,NNW,345,1.0,4.0,78,0.00,,,0.00,0.000000,,2013-04-14 08:12:00,
2013-04-14 01:21:00,43.0,37.0,-100.00,NNW,345,1.0,4.0,78,0.00,,,0.00,0.000000,,2013-04-14 08:21:00,
2013-04-14 01:43:00,42.0,36.0,-100.00,ESE,106,1.0,4.0,78,0.00,,,0.00,0.000000,,2013-04-14 08:43:00,
2013-04-14 01:52:00,42.0,36.0,-100.00,ESE,106,1.0,4.0,78,0.00,,,0.00,0.000000,,2013-04-14 08:52:00,
2013-04-14 02:02:00,42.0,36.0,-100.00,ESE,106,1.0,4.0,78,0.00,,,0.00,0.000000,,2013-04-14 09:02:00,
2013-04-14 02:12:00,42.0,36.0,-100.00,ESE,106,1.0,4.0,78,0.00,,,0.00,0.000000,,2013-04-14 09:12:00,
2013-04-14 02:21:00,42.0,36.0,-100.00,ESE,106,1.0,4.0,78,0.00,,,0.00,0.000000,,2013-04-14 09:21:00,
2013-04-14 02:43:00,42.0,34.0,-100.00,West,262,2.0,3.0,74,0.00,,,0.00,0.000000,,2013-04-14 09:43:00,
2013-04-14 02:53:00,42.0,34.0,-100.00,West,262,2.0,3.0,74,0.00,,,0.00,0.000000,,2013-04-14 09:53:00,
2013-04-14 03:03:00,42.0,34.0,-100.00,West,262,2.0,3.0,74,0.00,,,0.00,0.000000,,2013-04-14 10:03:00,
2013-04-14 03:12:00,42.0,34.0,-100.00,West,262,2.0,3.0,74,0.00,,,0.00,0.000000,,2013-04-14 10:12:00,
2013-04-14 03:22:00,42.0,34.0,-100.00,West,262,2.0,3.0,74,0.00,,,0.00,0.000000,,2013-04-14 10:22:00,
2013-04-14 03:43:00,42.0,33.0,-100.00,NW,310,2.0,4.0,71,0.00,,,0.00,0.000000,,2013-04-14 10:43:00,
2013-04-14 03:52:00,42.0,33.0,-100.00,NW,310,2.0,4.0,71,0.00,,,0.00,0.000000,,2013-04-14 10:52:00,
2013-04-14 04:02:00,42.0,33.0,-100.00,NW,310,2.0,4.0,71,0.00,,,0.00,0.000000,,2013-04-14 11:02:00,
2013-04-14 04:12:00,42.0,33.0,-100.00,NW,310,2.0,4.0,71,0.00,,,0.00,0.000000,,2013-04-14 11:12:00,
2013-04-14 04:22:00,42.0,33.0,-100.00,NW,310,2.0,4.0,71,0.00,,,0.00,0.000000,,2013-04-14 11:22:00,
2013-04-14 04:42:00,42.0,33.0,-100.00,NNE,20,2.0,4.0,71,0.00,,,0.00,0.000000,,2013-04-14 11:42:00,
2013-04-14 04:53:00,42.0,33.0,-100.00,NNE,20,2.0,4.0,71,0.00,,,0.00,0.000000,,2013-04-14 11:53:00,
2013-04-14 05:02:00,42.0,33.0,-100.00,NNE,20,2.0,4.0,71,0.00,,,0.00,0.000000,,2013-04-14 12:02:00,
2013-04-14 05:12:00,42.0,33.0,-100.00,NNE,20,2.0,4.0,71,0.00,,,0.00,0.000000,,2013-04-14 12:12:00,
2013-04-14 05:21:00,42.0,33.0,-100.00,NNE,20,2.0,4.0,71,0.00,,,0.00,0.000000,,2013-04-14 12:21:00,
2013-04-14 05:42:00,41.0,32.0,-100.00,West,266,1.0,3.0,71,0.00,,,0.00,0.000000,,2013-04-14 12:42:00,
2013-04-14 05:52:00,41.0,32.0,-100.00,West,266,1.0,3.0,71,0.00,,,0.00,0.000000,,2013-04-14 12:52:00,
2013-04-14 06:02:00,41.0,32.0,-100.00,West,266,1.0,3.0,71,0.00,,,0.00,0.000000,,2013-04-14 13:02:00,
2013-04-14 06:12:00,41.0,32.0,-100.00,West,266,1.0,3.0,71,0.00,,,0.00,0.000000,,2013-04-14 13:12:00,
2013-04-14 06:22:00,41.0,32.0,-100.00,West,266,1.0,3.0,71,0.00,,,0.00,0.000000,,2013-04-14 13:22:00,
2013-04-14 06:43:00,41.0,34.0,-100.00,WNW,289,2.0,6.0,75,0.00,,,0.00,1.000000,,2013-04-14 13:43:00,
2013-04-14 06:52:00,41.0,34.0,-100.00,WNW,289,2.0,6.0,75,0.00,,,0.00,1.000000,,2013-04-14 13:52:00,
2013-04-14 07:02:00,41.0,34.0,-100.00,WNW,289,2.0,6.0,75,0.00,,,0.00,1.000000,,2013-04-14 14:02:00,
2013-04-14 07:12:00,41.0,34.0,-100.00,WNW,289,2.0,6.0,75,0.00,,,0.00,1.000000,,2013-04-14 14:12:00,
2013-04-14 07:21:00,41.0,34.0,-100.00,WNW,289,2.0,6.0,75,0.00,,,0.00,1.000000,,2013-04-14 14:21:00,
2013-04-14 07:42:00,46.0,36.0,-100.00,East,79,1.0,4.0,67,0.00,,,-99.99,69.000000,,2013-04-14 14:42:00,
2013-04-14 07:53:00,46.0,36.0,-100.00,East,79,1.0,4.0,67,0.00,,,-99.99,69.000000,,2013-04-14 14:53:00,
2013-04-14 08:02:00,46.0,36.0,-100.00,East,79,1.0,4.0,67,0.00,,,-99.99,69.000000,,2013-04-14 15:02:00,
2013-04-14 08:12:00,46.0,36.0,-100.00,East,79,1.0,4.0,67,0.00,,,-99.99,69.000000,,2013-04-14 15:12:00,
2013-04-14 08:22:00,46.0,36.0,-100.00,East,79,1.0,4.0,67,0.00,,,-99.99,69.000000,,2013-04-14 15:22:00,
2013-04-14 08:43:00,52.0,36.0,-100.00,SE,125,3.0,6.0,54,0.00,,,0.00,321.000000,,2013-04-14 15:43:00,
2013-04-14 09:43:00,55.0,31.0,-100.00,South,188,4.0,17.0,40,-99.99,,,0.00,600.000000,,2013-04-14 16:43:00,
2013-04-14 09:53:00,55.0,31.0,-100.00,South,188,4.0,17.0,40,-99.99,,,0.00,600.000000,,2013-04-14 16:53:00,
2013-04-14 10:02:00,55.0,31.0,-100.00,South,188,4.0,17.0,40,-99.99,,,0.00,600.000000,,2013-04-14 17:02:00,
2013-04-14 10:12:00,55.0,31.0,-100.00,South,188,4.0,17.0,40,-99.99,,,0.00,600.000000,,2013-04-14 17:12:00,
2013-04-14 10:22:00,55.0,31.0,-100.00,South,188,4.0,17.0,40,-99.99,,,0.00,600.000000,,2013-04-14 17:22:00,
2013-04-14 10:42:00,54.0,27.0,-100.00,SW,227,6.0,13.0,35,0.00,,,0.00,854.000000,,2013-04-14 17:42:00,
2013-04-14 10:53:00,54.0,27.0,-100.00,SW,227,6.0,13.0,35,0.00,,,0.00,854.000000,,2013-04-14 17:53:00,
2013-04-14 11:02:00,54.0,27.0,-100.00,SW,227,6.0,13.0,35,0.00,,,0.00,854.000000,,2013-04-14 18:02:00,
2013-04-14 11:12:00,54.0,27.0,-100.00,SW,227,6.0,13.0,35,0.00,,,0.00,854.000000,,2013-04-14 18:12:00,
2013-04-14 11:21:00,54.0,27.0,-100.00,SW,227,6.0,13.0,35,0.00,,,0.00,854.000000,,2013-04-14 18:21:00,
2013-04-14 11:43:00,56.0,23.0,-100.00,WSW,243,8.0,15.0,27,0.00,,,0.00,1074.000000,,2013-04-14 18:43:00,
2013-04-14 11:53:00,56.0,23.0,-100.00,WSW,243,8.0,15.0,27,0.00,,,0.00,1074.000000,,2013-04-14 18:53:00,
2013-04-14 12:03:00,56.0,23.0,-100.00,WSW,243,8.0,15.0,27,0.00,,,0.00,1074.000000,,2013-04-14 19:03:00,
2013-04-14 12:12:00,56.0,23.0,-100.00,WSW,243,8.0,15.0,27,0.00,,,0.00,1074.000000,,2013-04-14 19:12:00,
2013-04-14 12:21:00,56.0,23.0,-100.00,WSW,243,8.0,15.0,27,0.00,,,0.00,1074.000000,,2013-04-14 19:21:00,
2013-04-14 12:43:00,54.0,19.0,-100.00,WSW,246,11.0,21.0,25,0.00,,,0.00,1221.000000,,2013-04-14 19:43:00,
2013-04-14 12:52:00,54.0,19.0,-100.00,WSW,246,11.0,21.0,25,0.00,,,0.00,1221.000000,,2013-04-14 19:52:00,
2013-04-14 13:02:00,54.0,19.0,-100.00,WSW,246,11.0,21.0,25,0.00,,,0.00,1221.000000,,2013-04-14 20:02:00,
2013-04-14 13:12:00,54.0,19.0,-100.00,WSW,246,11.0,21.0,25,0.00,,,0.00,1221.000000,,2013-04-14 20:12:00,
2013-04-14 13:21:00,54.0,19.0,-100.00,WSW,246,11.0,21.0,25,0.00,,,0.00,1221.000000,,2013-04-14 20:21:00,
2013-04-14 13:43:00,55.0,23.0,-100.00,WSW,246,11.0,25.0,28,0.00,,,0.00,1281.000000,,2013-04-14 20:43:00,
2013-04-14 13:52:00,55.0,23.0,-100.00,WSW,246,11.0,25.0,28,0.00,,,0.00,1281.000000,,2013-04-14 20:52:00,
2013-04-14 14:02:00,55.0,23.0,-100.00,WSW,246,11.0,25.0,28,0.00,,,0.00,1281.000000,,2013-04-14 21:02:00,
2013-04-14 14:12:00,55.0,23.0,-100.00,WSW,246,11.0,25.0,28,0.00,,,0.00,1281.000000,,2013-04-14 21:12:00,
2013-04-14 14:22:00,55.0,23.0,-100.00,WSW,246,11.0,25.0,28,0.00,,,0.00,1281.000000,,2013-04-14 21:22:00,
2013-04-14 14:43:00,55.0,24.0,-100.00,SW,233,10.0,23.0,30,0.00,,,0.00,1243.000000,,2013-04-14 21:43:00,
2013-04-14 14:53:00,55.0,24.0,-100.00,SW,233,10.0,23.0,30,0.00,,,0.00,1243.000000,,2013-04-14 21:53:00,
2013-04-14 15:02:00,55.0,24.0,-100.00,SW,233,10.0,23.0,30,0.00,,,0.00,1243.000000,,2013-04-14 22:02:00,
2013-04-14 15:12:00,55.0,24.0,-100.00,SW,233,10.0,23.0,30,0.00,,,0.00,1243.000000,,2013-04-14 22:12:00,
2013-04-14 15:22:00,55.0,24.0,-100.00,SW,233,10.0,23.0,30,0.00,,,0.00,1243.000000,,2013-04-14 22:22:00,
2013-04-14 15:44:00,55.0,24.0,-100.00,WSW,246,10.0,22.0,30,0.00,,,0.00,1163.000000,,2013-04-14 22:44:00,
2013-04-14 15:52:00,55.0,24.0,-100.00,WSW,246,10.0,22.0,30,0.00,,,0.00,1163.000000,,2013-04-14 22:52:00,
2013-04-14 16:02:00,55.0,24.0,-100.00,WSW,246,10.0,22.0,30,0.00,,,0.00,1163.000000,,2013-04-14 23:02:00,
2013-04-14 16:12:00,55.0,24.0,-100.00,WSW,246,10.0,22.0,30,0.00,,,0.00,1163.000000,,2013-04-14 23:12:00,
2013-04-14 16:22:00,55.0,24.0,-100.00,WSW,246,10.0,22.0,30,0.00,,,0.00,1163.000000,,2013-04-14 23:22:00,
2013-04-14 16:43:00,53.0,24.0,-100.00,WSW,238,10.0,23.0,32,0.00,,,0.00,837.000000,,2013-04-14 23:43:00,
2013-04-14 16:53:00,53.0,24.0,-100.00,WSW,238,10.0,23.0,32,0.00,,,0.00,837.000000,,2013-04-14 23:53:00,
2013-04-14 17:02:00,53.0,24.0,-100.00,WSW,238,10.0,23.0,32,0.00,,,0.00,837.000000,,2013-04-15 00:02:00,
2013-04-14 17:12:00,53.0,24.0,-100.00,WSW,238,10.0,23.0,32,0.00,,,0.00,837.000000,,2013-04-15 00:12:00,
2013-04-14 17:22:00,53.0,24.0,-100.00,WSW,238,10.0,23.0,32,0.00,,,0.00,837.000000,,2013-04-15 00:22:00,
2013-04-14 17:42:00,52.0,25.0,-100.00,SW,236,10.0,21.0,35,0.00,,,0.00,716.000000,,2013-04-15 00:42:00,
2013-04-14 17:52:00,52.0,25.0,-100.00,SW,236,10.0,21.0,35,0.00,,,0.00,716.000000,,2013-04-15 00:52:00,
2013-04-14 18:02:00,52.0,25.0,-100.00,SW,236,10.0,21.0,35,0.00,,,0.00,716.000000,,2013-04-15 01:02:00,
2013-04-14 18:12:00,52.0,25.0,-100.00,SW,236,10.0,21.0,35,0.00,,,0.00,716.000000,,2013-04-15 01:12:00,
2013-04-14 18:22:00,52.0,25.0,-100.00,SW,236,10.0,21.0,35,0.00,,,0.00,716.000000,,2013-04-15 01:22:00,
2013-04-14 18:42:00,48.0,25.0,-100.00,WSW,240,10.0,17.0,41,0.00,,,0.00,409.000000,,2013-04-15 01:42:00,
2013-04-14 18:52:00,48.0,25.0,-100.00,WSW,240,10.0,17.0,41,0.00,,,0.00,409.000000,,2013-04-15 01:52:00,
2013-04-14 19:02:00,48.0,25.0,-100.00,WSW,240,10.0,17.0,41,0.00,,,0.00,409.000000,,2013-04-15 02:02:00,
2013-04-14 19:12:00,48.0,25.0,-100.00,WSW,240,10.0,17.0,41,0.00,,,0.00,409.000000,,2013-04-15 02:12:00,
2013-04-14 19:21:00,48.0,25.0,-100.00,WSW,240,10.0,17.0,41,0.00,,,0.00,409.000000,,2013-04-15 02:21:00,
2013-04-14 19:42:00,45.0,27.0,-100.00,WSW,237,8.0,18.0,49,0.00,,,0.00,55.000000,,2013-04-15 02:42:00,
2013-04-14 19:52:00,45.0,27.0,-100.00,WSW,237,8.0,18.0,49,0.00,,,0.00,55.000000,,2013-04-15 02:52:00,
2013-04-14 20:02:00,45.0,27.0,-100.00,WSW,237,8.0,18.0,49,0.00,,,0.00,55.000000,,2013-04-15 03:02:00,
2013-04-14 20:12:00,45.0,27.0,-100.00,WSW,237,8.0,18.0,49,0.00,,,0.00,55.000000,,2013-04-15 03:12:00,
2013-04-14 20:21:00,45.0,27.0,-100.00,WSW,237,8.0,18.0,49,0.00,,,0.00,55.000000,,2013-04-15 03:21:00,
2013-04-14 20:43:00,43.0,28.0,-100.00,SW,234,6.0,15.0,54,0.00,,,0.00,2.000000,,2013-04-15 03:43:00,
2013-04-14 20:54:00,43.0,28.0,-100.00,SW,234,6.0,15.0,54,0.00,,,0.00,2.000000,,2013-04-15 03:54:00,
2013-04-14 21:02:00,43.0,28.0,-100.00,SW,234,6.0,15.0,54,0.00,,,0.00,2.000000,,2013-04-15 04:02:00,
2013-04-14 21:12:00,43.0,28.0,-100.00,SW,234,6.0,15.0,54,0.00,,,0.00,2.000000,,2013-04-15 04:12:00,
2013-04-14 21:22:00,43.0,28.0,-100.00,SW,234,6.0,15.0,54,0.00,,,0.00,2.000000,,2013-04-15 04:22:00,
2013-04-14 21:43:00,42.0,27.0,-100.00,South,191,3.0,16.0,55,0.00,,,0.00,0.000000,,2013-04-15 04:43:00,
2013-04-14 21:52:00,42.0,27.0,-100.00,South,191,3.0,16.0,55,0.00,,,0.00,0.000000,,2013-04-15 04:52:00,
2013-04-14 22:02:00,42.0,27.0,-100.00,South,191,3.0,16.0,55,0.00,,,0.00,0.000000,,2013-04-15 05:02:00,
2013-04-14 22:12:00,42.0,27.0,-100.00,South,191,3.0,16.0,55,0.00,,,0.00,0.000000,,2013-04-15 05:12:00,
2013-04-14 22:22:00,42.0,27.0,-100.00,South,191,3.0,16.0,55,0.00,,,0.00,0.000000,,2013-04-15 05:22:00,
2013-04-14 22:43:00,41.0,30.0,-100.00,South,170,3.0,15.0,64,0.00,,,0.00,0.000000,,2013-04-15 05:43:00,
2013-04-14 22:52:00,41.0,30.0,-100.00,South,170,3.0,15.0,64,0.00,,,0.00,0.000000,,2013-04-15 05:52:00,
2013-04-14 23:02:00,41.0,30.0,-100.00,South,170,3.0,15.0,64,0.00,,,0.00,0.000000,,2013-04-15 06:02:00,
2013-04-14 23:12:00,41.0,30.0,-100.00,South,170,3.0,15.0,64,0.00,,,0.00,0.000000,,2013-04-15 06:12:00,
2013-04-14 23:22:00,41.0,30.0,-100.00,South,170,3.0,15.0,64,0.00,,,0.00,0.000000,,2013-04-15 06:22:00,
2013-04-14 23:43:00,40.0,34.0,-100.00,SW,215,3.0,8.0,79,0.00,,,0.00,0.000000,,2013-04-15 06:43:00,
2013-04-14 23:52:00,40.0,34.0,-100.00,SW,215,3.0,8.0,79,0.00,,,0.00,0.000000,,2013-04-15 06:52:00,